Regional Weather Roundup
Issued by NWS

Home | Current Version | Previous Version | Text Only | Print | Product List | Glossary Off
Versions: 1 2 3 4 5 6 7 8 9 10 11 12 13 14 15 16 17 18 19 20 21 22 23 24 25 26 27 28 29 30 31 32 33 34 35 36 37 38 39 40 41 42 43 44 45 46 47 48 49 50

000
ASUS43 KLOT 280206
RWRIL

ILLINOIS REGIONAL WEATHER ROUNDUP
NATIONAL WEATHER SERVICE CHICAGO/ROMEOVILLE IL
900 PM CDT SUN JUL 27 2014

NOTE: "FAIR" INDICATES FEW OR NO CLOUDS BELOW 12,000 FEET WITH NO
SIGNIFICANT WEATHER AND/OR OBSTRUCTIONS TO VISIBILITY.

* THESE STATIONS ARE NOT UNDER NWS QUALITY CONTROL. THEY ALSO MAY NOT
  REPORT WEATHER SUCH AS PRECIPITATION OR FOG.

ILZ001-002-007-009-015-016-024-280300-
NORTHWEST ILLINOIS

CITY           SKY/WX    TMP DP  RH WIND       PRES   REMARKS
MOLINE         CLEAR     71  59  65 W14G20    29.94R
STERLING*      CLEAR     70  57  64 NW12      29.91R
SAVANNA*       PTCLDY    72  58  60 NW9       29.91S
$$

ILZ003-004-008-010-011-017-018-280300-
NORTH CENTRAL ILLINOIS

CITY           SKY/WX    TMP DP  RH WIND       PRES   REMARKS
ROCKFORD       PTCLDY    70  58  65 N15       29.90R
FREEPORT*      PTCLDY    69  59  72 NW15G23   29.93R
ROCHELLE*      CLOUDY    71  57  61 NW12G20   29.89R
DE KALB*       MOCLDY    67  56  68 NW12      29.88R
PERU*          CLEAR     69  60  72 W10       29.89S
$$

ILZ005-006-012>014-019>023-280300-
NORTHEAST ILLINOIS

CITY           SKY/WX    TMP DP  RH WIND       PRES   REMARKS
CHICAGO-OHARE  LGT RAIN  72  56  57 NW14      29.84R
CHICAGO-MIDWAY MOCLDY    74  57  55 NW15G23   29.83R
AURORA         MOCLDY    69  57  65 NW7       29.86R
LANSING*       CLEAR     72  54  53 NW10G17   29.83R
JOLIET*        PTCLDY    71  55  58 NW6       29.86R
WAUKEGAN       MOCLDY    63  60  90 N12       29.85R
DUPAGE AIRPORT CLOUDY    70  58  65 NW10      29.85R
KANKAKEE*      CLOUDY    72  58  61 W9        29.86R
WHEELING       CLOUDY    68  62  81 N8        29.85R
MORRIS*        PTCLDY    70  60  70 NW7       29.86R
ROMEOVILLE*    CLEAR     70  55  59 NW12G17   29.85R
NORTHERLY ISL    N/A     73  56  54 W20         N/A
$$

LMZ740>746-280300-
SOUTHERN LAKE MICHIGAN

STATION/POSITION SKY/WX   TEMP    WIND        PRES    VSBY  WAVE
                          AIR SEA DIR/SP/G                  HT/PER
                          (F)     (DEG/KT/KT) (MB)    (MI)  (FT/S)
SOUTHERN BUOY              62 62  340/ 23/ 27 1009.5R         3/ 4
WAUKEGAN HARBOR            65      20/ 15/ 17   N/A
HARRISON CRIB              67     340/ 27/ 33   N/A
BURNHAM HARBOR             67     350/ 20/ 20   N/A
CALUMET HARBOR             73     300/  8/ 14 1008.9R
BURNS HARBOR               68     360/ 16/ 19 1010.2S
MICHIGAN CITY              67     340/ 23/ 26   N/A
MICHIGAN CITY 6N           67 69  360/ 16/ 21   N/A           5/ 4
ST. JOSEPH                 64 64  330/ 14/ 19   N/A           5/ 5
$$

ILZ025>027-034>036-040-047-049-050-058-095>099-280300-
WEST-CENTRAL ILLINOIS

CITY           SKY/WX    TMP DP  RH WIND       PRES   REMARKS
QUINCY         CLEAR     70  58  65 NW8       30.00R
GALESBURG*     CLEAR     67  61  79 W8        29.95R
MACOMB*        CLEAR     66  59  80 NW8       29.99R
JACKSONVILLE*  CLEAR     69  61  75 W6        29.98R
PITTSFIELD*    CLEAR     71  58  62 W5        30.00S
$$

ILZ028>032-037-038-041>044-048-051>054-059>061-280300-
CENTRAL ILLINOIS

CITY           SKY/WX    TMP DP  RH WIND       PRES   REMARKS
PONTIAC        CLEAR     72  59  64 W10G16    29.88S
DECATUR        CLEAR     73  58  59 NW14      29.92R
PEORIA         CLEAR     72  57  59 W8        29.93R
LACON*         CLEAR     70  57  63 NW9G21    29.90R
LINCOLN*       CLEAR     72  58  63 NW6       29.90S
SPRINGFIELD    CLEAR     72  59  63 W7        29.95R
TAYLORVILLE    CLEAR     70  57  64 NW7       29.95R
$$

ILZ033-039-045-046-055>057-062-063-280300-
EAST-CENTRAL ILLINOIS

CITY           SKY/WX    TMP DP  RH WIND       PRES   REMARKS
CHAMPAIGN      CLEAR     66  60  81 W8        29.90R
DANVILLE*      CLEAR     68  58  71 W8        29.85R
RANTOUL*       CLEAR     69  58  67 W7        29.90R
MATTOON        CLEAR     70  57  63 NW13      29.91R
PARIS*         CLEAR     69  60  73 W8        29.90R
$$

ILZ079-100>102-280300-
SOUTHWEST ILLINOIS

CITY           SKY/WX    TMP DP  RH WIND       PRES   REMARKS
ALTON          CLEAR     75  61  60 NW12      29.96R
BELLEVILLE     CLEAR     78  62  57 W15G21    29.94R
CAHOKIA*       CLEAR     80  60  50 N16G26    29.95R HX  81
SPARTA*        CLEAR     79  59  50 NW8       29.93S HX  80
$$

ILZ064>066-069>071-074>076-080>082-084>086-088>090-092>094-280300-
SOUTH-CENTRAL ILLINOIS

CITY           SKY/WX    TMP DP  RH WIND       PRES   REMARKS
CARBONDALE     CLEAR     78  58  49 N7        29.91R
CAIRO*         PTCLDY    83  66  55 W9        29.89R HX  85
EFFINGHAM*     CLEAR     73  54  49 NW10      29.92R
MARION         CLEAR     82  59  44 NW5       29.92R HX  82
MT. VERNON     CLEAR     79  57  47 N3        29.93R HX  80
CENTRALIA*     CLEAR     76  58  53 NW13      29.94R
SALEM*         CLEAR    N/A N/A N/A NW16G23   29.94R
METROPOLIS*    PTCLDY    81  62  52 NW5       29.88R HX  82
$$

ILZ067-068-072-073-078-083-087-091-280300-
SOUTHEAST ILLINOIS

CITY           SKY/WX    TMP DP  RH WIND       PRES   REMARKS
LAWRENCEVILLE  PTCLDY    77  61  57 NW17      29.89R
FLORA*         CLEAR     76  58  54 NW13G20   29.93R
FAIRFIELD*     CLEAR     79  63  57 NW6       29.91R HX  80
HARRISBURG*    CLEAR     78  59  51 NW6       29.91R
ROBINSON*      PTCLDY    76  62  62 NW13G18   29.90R
CARMI*         CLEAR     79  63  57 NW14      29.88R HX  80
$$

ABBREVIATIONS USED IN REMARKS
   TC - TEMPERATURE IN CELSIUS
  WCI - WIND CHILL INDEX
   HX - HEAT INDEX
  VSB - VISIBILITY
$$




USA.gov is the U.S. government's official web portal to all federal, state and local government web resources and services.